Regional Weather Roundup
Issued by NWS

Home | Current Version | Previous Version | Graphics & Text | Print | Product List | Glossary Off
Versions: 1 2 3 4 5 6 7 8 9 10 11 12 13 14 15 16 17 18 19 20 21 22 23 24 25 26 27 28 29 30 31 32 33 34 35 36 37 38 39 40 41 42 43 44 45 46 47 48 49 50

000
ASUS43 KDMX 041307
RWRIA

WEATHER ROUNDUP FOR IOWA
NATIONAL WEATHER SERVICE DES MOINES IA
700 AM CST WED MAR 04 2015

NOTE: "FAIR" INDICATES FEW OR NO CLOUDS BELOW 12,000 FEET WITH NO
SIGNIFICANT WEATHER AND/OR OBSTRUCTIONS TO VISIBILITY.

* - THESE STATIONS ARE NOT NWS STATIONS...THUS NOT UNDER NWS
QUALITY CONTROL.  THEY ALSO DO NOT REPORT WEATHER SUCH
AS PRECIPITATION OR FOG.

IAZ001>003-012>014-020>022-031>034-043>046-041400-
   NORTHWEST IOWA

CITY           SKY/WX    TMP DP  RH WIND       PRES   REMARKS
CARROLL *      MOCLDY    10   3  72 W3        30.22S
CHEROKEE *     PTCLDY     5   0  78 SW3       30.21S
DENISON *      MOCLDY    10   5  79 W3        30.21S
LE MARS *      CLEAR      5   1  85 S3        30.22S
ORANGE CITY *  CLEAR      3  -2  78 W6        30.18S WCI  -8
SHELDON *      CLEAR      3  -6  66 W5        30.17S WCI  -6
SIOUX CITY     PTCLDY    10   4  76 CALM      30.24R
SPENCER        PTCLDY     3  -4  72 W9        30.18R WCI -12
STORM LAKE *   CLEAR      5  -2  72 W8        30.19S WCI  -8
$$

IAZ055>058-069>071-079>083-090>094-041400-
   SOUTHWEST IOWA

CITY           SKY/WX    TMP DP  RH WIND       PRES   REMARKS
ATLANTIC *     MOCLDY    10   5  79 CALM      30.24S
AUDUBON *      CLEAR     10   3  72 W5        30.22S WCI   2
CLARINDA *     CLEAR     12   7  79 NW7       30.27S WCI   2
COUNCIL BLFS * MOCLDY    14   7  73 CALM      30.23S
CRESTON *      PTCLDY    10   1  67 N9        30.22R WCI  -2
HARLAN  *      CLEAR     10   7  85 W5        30.27S WCI   2
LAMONI         CLOUDY    15   3  59 N15       30.22R WCI   0
RED OAK *      MOCLDY     9   7  92 CALM      30.27R
SHENANDOAH *   CLEAR      9   7  92 NW5       30.28S WCI   0
$$

IAZ047>049-059>061-072>074-084-041400-
   CENTRAL IOWA

CITY           SKY/WX    TMP DP  RH WIND       PRES   REMARKS
AMES           MOCLDY     9  -3  58 NW13      30.22R WCI  -7
ANKENY *       CLEAR     10  -2  56 NW8       30.24R WCI  -1
CHARITON *     CLOUDY    14   3  62 NW10      30.21R WCI   1
DES MOINES     PTCLDY    12  -1  56 NW8       30.24R WCI   0
GRINNELL*      PTCLDY     7  -2  66 NW15      30.19S WCI -11
KNOXVILLE *    CLOUDY    14  -2  48 NW15      30.21R WCI  -1
MARSHALLTOWN   PTCLDY     6  -2  69 NW12      30.20R WCI  -9
PELLA *        PTCLDY    14   5  67 NW12      30.23R WCI   0
PERRY *          N/A     10   3  72 NW5       30.23F WCI   2
$$

IAZ004>006-015-016-023>025-035-036-041400-
   NORTH CENTRAL IOWA

CITY           SKY/WX    TMP DP  RH WIND       PRES   REMARKS
ALGONA *       CLEAR      5  -2  72 NW7       30.20R WCI  -7
CLARION *      CLEAR      5  -4  66 NW12      30.20R WCI -11
ESTHERVILLE    CLEAR      0  -6  76 W6        30.17R WCI -12
FORT DODGE *   PTCLDY     7  -4  61 NW5       30.21S WCI  -2
MASON CITY     PTCLDY     1  -7  68 NW10      30.18R WCI -15
FOREST CITY *  CLEAR      3  -8  60 NW8       30.17R WCI -10
IOWA FALLS *     N/A      7  -2  66 NW12      30.20R WCI  -9
$$

IAZ007>011-017>019-026>030-037>042-050>054-066-041400-
   NORTHEAST IOWA

CITY           SKY/WX    TMP DP  RH WIND       PRES   REMARKS
CEDAR RAPIDS   CLOUDY     9  -1  64 NW20      30.16R WCI -10
CHARLES CITY * PTCLDY     3  -6  66 NW14      30.17R WCI -15
CLINTON *      CLOUDY     9   1  72 NW9       30.14R WCI  -5
DECORAH *      PTCLDY     3  -6  66 NW14      30.12R WCI -15
DUBUQUE        MOCLDY     7   0  73 NW12G18   30.11R WCI  -8
MONTICELLO *   CLOUDY     9   0  66 NW16      30.15R WCI  -9
OELWEIN *      PTCLDY     5  -2  72 NW13      30.16R WCI -12
WATERLOO       PTCLDY     6  -5  60 NW9       30.19R WCI  -8
$$

IAZ064-065-067-068-078-041400-
   EAST CENTRAL IOWA

CITY           SKY/WX    TMP DP  RH WIND       PRES   REMARKS
DAVENPORT      CLOUDY    10   0  63 NW18      30.14R WCI  -8
IOWA CITY      CLOUDY    12   0  58 NW13G25   30.20R WCI  -3
MT. PLEASANT * CLOUDY    12   1  62 NW12G21   30.19R WCI  -2
MUSCATINE *    CLOUDY    14   3  62 NW16      30.18S WCI  -2
QUAD CITIES    CLOUDY    11   1  64 NW14      30.14R WCI  -5
$$

IAZ062-063-075>077-085>089-095>099-041400-
   SOUTHEAST IOWA

CITY           SKY/WX    TMP DP  RH WIND       PRES   REMARKS
BURLINGTON     CLOUDY    13   3  64 NW9       30.17R WCI   1
FAIRFIELD *    CLOUDY    14   1  57 NW16G24   30.19R WCI  -2
FORT MADISON * CLOUDY    12   3  67 NW12      30.18R WCI  -2
KEOKUK *       CLOUDY    14   3  62 NW12G17   30.18S WCI   0
OSKALOOSA *    CLOUDY    14   0  52 N17G30    30.21R WCI  -3
CENTERVILLE *  CLOUDY    16   5  62 NW17      30.21R WCI   0
OTTUMWA        CLOUDY    14   2  58 NW18G26   30.19R WCI  -3
WASHINGTON *   CLOUDY    14   5  67 NW17G24   30.18R WCI  -3
$$

ABBREVIATIONS USED IN REMARKS
   TC - TEMPERATURES IN CELSIUS
  WCI - WIND CHILL INDEX
   HX - HEAT INDEX
  VSB - VISIBILITY
$$



USA.gov is the U.S. government's official web portal to all federal, state and local government web resources and services.